Lamar, CO

11:24 PM MST on December 15, 2019 (GMT -0700)
Lamar Municipal

Weather History for KLAA - October, 2019

Change the Weather History Date:

Friday, October 11, 2019

  Actual Average Record
Temperature  
Mean Temperature 34 °F 55 °F  
Max Temperature 56 °F 73 °F 96 °F (2015)
Min Temperature 11 °F 37 °F 11 °F (2019)
Degree Days  
Heating Degree Days 31 10  
Month to date heating degree days 120 92  
Since 1 July heating degree days 126 175  
Cooling Degree Days 0 0  
Month to date cooling degree days 1 8  
Year to date cooling degree days 1406 1120  
Moisture  
Dew Point 8 °F    
Average Humidity 52    
Maximum Humidity 92    
Minimum Humidity 12    
Precipitation  
Precipitation 0.00 in 0.02 in 2.51 in (1930)
Month to date precipitation 0.01 0.28  
Year to date precipitation 7.76 13.90  
Sea Level Pressure  
Sea Level Pressure 30.33 in    
Wind  
Wind Speed 6 mph (West)    
Max Wind Speed 15 mph    
Max Gust Speed 21 mph    
Visibility 10 miles    
Events      
T = Trace of Precipitation, MM = Missing Value Source: NWS Daily Summary

Daily Weather History Graph

Daily Weather History Graph

Search for Another Location

Airport or City:

Astronomy

Oct. 11, 2019 Rise Set
Actual Time 6:55 AM MDT 6:18 PM MDT
Civil Twilight 6:29 AM MDT 6:45 PM MDT
Nautical Twilight 5:58 AM MDT 7:15 PM MDT
Astronomical Twilight 5:27 AM MDT 7:46 PM MDT
Moon 5:46 PM MDT (10/11) 4:41 AM MDT (10/11)
Length of Visible Light 12h 16m
Length of Day
11h 23m
Waxing Gibbous, 96% of the Moon is Illuminated
Oct 11
Waxing Gibbous
Oct 13
Full
Oct 21
Last Quarter
Oct 27
New
Nov 4
First Quarter

Hourly Weather History & Observations

Time (MDT) Temp. Windchill Dew Point Humidity Pressure Visibility Wind Dir Wind Speed Gust Speed Precip Events Conditions
12:53 AM 21.0 °F 13.4 °F 12.9 °F 71% 30.38 in 10.0 mi WNW 5.8 mph - N/A   Clear
1:53 AM 19.9 °F 14.9 °F 12.0 °F 71% 30.39 in 10.0 mi West 3.5 mph - N/A   Clear
2:53 AM 18.0 °F 8.7 °F 10.9 °F 74% 30.38 in 10.0 mi WNW 6.9 mph - N/A   Clear
3:53 AM 14.0 °F 5.1 °F 9.0 °F 80% 30.40 in 10.0 mi WSW 5.8 mph - N/A   Clear
4:53 AM 10.9 °F -0.8 °F 8.1 °F 88% 30.42 in 10.0 mi SW 8.1 mph - N/A   Clear
5:53 AM 12.9 °F 2.6 °F 9.0 °F 84% 30.43 in 10.0 mi SW 6.9 mph - N/A   Clear
6:53 AM 12.9 °F 6.9 °F 9.0 °F 84% 30.44 in 10.0 mi West 3.5 mph - N/A   Clear
8:53 AM 27.0 °F 18.0 °F 17.1 °F 66% 30.45 in 10.0 mi West 9.2 mph - N/A   Clear
9:53 AM 36.0 °F 28.5 °F 16.0 °F 44% 30.43 in 10.0 mi West 10.4 mph - N/A   Clear
10:53 AM 39.9 °F 33.4 °F 18.0 °F 41% 30.40 in 10.0 mi WSW 10.4 mph - N/A   Clear
11:53 AM 45.0 °F 40.1 °F 16.0 °F 31% 30.38 in 10.0 mi WNW 9.2 mph - N/A   Clear
12:53 PM 48.0 °F - 12.9 °F 24% 30.34 in 10.0 mi NW 6.9 mph - N/A   Clear
1:53 PM 52.0 °F - 10.9 °F 19% 30.30 in 10.0 mi North - - N/A   Clear
2:53 PM 53.1 °F - 7.0 °F 16% 30.27 in 10.0 mi North - - N/A   Clear
3:53 PM 55.0 °F - 5.0 °F 13% 30.26 in 10.0 mi NW 10.4 mph - N/A   Clear
4:53 PM 55.0 °F - 3.0 °F 12% 30.25 in 10.0 mi Variable 4.6 mph - N/A   Clear
5:53 PM 53.1 °F - 1.9 °F 12% 30.24 in 10.0 mi Calm Calm - N/A   Clear
6:53 PM 42.1 °F 39.2 °F 1.0 °F 18% 30.26 in 10.0 mi SE 4.6 mph - N/A   Clear
7:53 PM 32.0 °F 28.7 °F -0.0 °F 26% 30.19 in 10.0 mi South 3.5 mph - N/A   Clear
8:53 PM 28.9 °F 21.9 °F -0.0 °F 29% 30.27 in 10.0 mi SSW 6.9 mph - N/A   Clear
9:53 PM 27.0 °F 20.5 °F -0.0 °F 31% 30.25 in 10.0 mi SSW 5.8 mph - N/A   Clear
10:53 PM 28.0 °F 24.2 °F 3.9 °F 36% 30.22 in 10.0 mi North 3.5 mph - N/A   Clear
11:53 PM 25.0 °F - 9.0 °F 51% 30.19 in 10.0 mi Calm Calm - N/A   Clear